Location: Newark
(50.4348°N, 30.5552°E)
Time: 10:27:58
(UTC+00:00)

Vanguard 1 - All Passes

Search period start: 24 January 2020 00:00
Search period end: 03 February 2020 00:00
Orbit: 651 x 3832 km, 34.2° (Epoch: 23 January)

Date Brightness Start Highest point End Pass type
(mag) Time Alt. Az. Time Alt. Az. Time Alt. Az.
24 Jan - 17:19:29 10° SW 17:22:39 16° S 17:26:34 10° SE visible
24 Jan - 19:39:15 10° SW 19:42:15 13° SSW 19:45:53 10° S visible
25 Jan - 15:23:08 10° S 15:24:17 11° SSE 15:25:30 10° SSE visible
25 Jan - 17:40:20 10° SW 17:43:18 15° S 17:46:55 10° SSE visible
26 Jan - 15:43:02 10° SSW 15:44:50 12° S 15:46:47 10° SSE visible
26 Jan - 18:01:30 10° SSW 18:03:58 13° S 18:06:52 10° SSE visible
27 Jan - 16:03:28 10° SSW 16:05:25 12° S 16:07:33 10° SSE visible
27 Jan - 18:23:42 10° SSW 18:24:40 10° S 18:25:41 10° S visible
28 Jan - 16:24:15 10° SSW 16:26:01 12° S 16:27:57 10° SSE visible
29 Jan - 14:27:13 10° S 14:27:39 10° S 14:28:05 10° SSE daylight
29 Jan - 16:45:37 10° SSW 16:46:38 11° S 16:47:42 10° S visible
30 Jan - 14:47:00 10° SSW 14:48:14 11° S 14:49:27 10° SSE daylight
31 Jan - 15:07:37 10° SSW 15:08:49 11° S 15:10:01 10° SSE daylight
01 Feb - 13:09:18 10° S 13:10:24 11° S 13:11:27 10° SSE daylight
02 Feb - 13:29:08 10° SSW 13:31:01 12° S 13:32:46 10° SSE daylight
